sat.trackr.live / text

‹ back to catalog

STARLINK-2627

NORAD 48687 · 2021-044BB

PAYLOAD ACTIVE UNKNOWN

§ Identity

Operator
Country
US
Launch date
2021-05-26
Launch site
AFETR
Launch vehicle
Mass (kg)
RCS (m²)

Purposes: comms

External: N2YO · Heavens-Above · Gunter

§ Orbital elements

Epoch: 2026-09-14T07:41:20.699808Z

Period
94.01 min
Inclination
53.1604°
Eccentricity
0.0001303
Mean motion
15.31721059 rev/d
Perigee alt
469.8 km
Apogee alt
471.6 km
Semi-major
6,848.8 km
B*
6.0065e-5
RAAN
267.1321°
Arg perigee
94.6166°
Mean anomaly
265.4985°
Rev number
29,340

§ Raw data

STARLINK-26271 48687U 21044BB  26257.32037847  .00001500  00000+0  60065-4 0  99962 48687  53.1604 267.1321 0001303  94.6166 265.4985 15.31721059293406

JSON: /api/v1/satellites/48687 · /tle

For live sub-satellite position, see the globe view (requires WebGL).

§ Visibility from observer

Set your observer location to see the next 7 days of passes ≥ 10°. The values pass through the URL so the page stays shareable.

No JS? Fill the form by hand. The geolocation button needs JavaScript.